Weather in Le puy-en-Velay

France     45°02′31″N   3°52′54″E
temp.,
°C
wind,
m/s
gust,
m/s
humid.,
%
clouds,
%
prec.,
mm/h
press.,
hPa
HPBL,
m
12 may, wed
wed1223:00+2wnw13964 0.0 102094
02:00+1sw11975 0.0 101913
05:000s119756 0.0 101810
08:00+3ssw01875 0.0 1017111
11:00+11nnw12436 0.0 1013992
14:00+14nw233898 0.0 10102092
17:00+10w4582100 0.8 10111002
20:00+8nw119027 1.5 101144
13 may, thu
thu1323:00+5wsw2998100 0.6 1014707
02:00+4wnw51095100 1.1 1014920
05:00+2w2109118 0.1 1016668
08:00+2w1492100 0.1 1016231
11:00+5nw3783100 0.1 1014904
14:00+8wnw256886 0.3 10121170
17:00+11nw254780 0.3 10091932
20:00+9s116296 0.4 100916
14 may, fri
fri1423:00+5sw1189100 0.1 101223
02:00+4sw119371 0.1 101229
05:00+3wsw119598 0.0 101217
08:00+5w148674 0.1 1012381
11:00+9wnw455496 0.1 10111511
14:00+9wnw566368 0.4 10111455
17:00+11nw684510 0.0 10111888
20:00+8nw487316 0.1 10131061
15 may, sat
sat1523:00+4wnw2994100 0.1 1016525
02:00+3ssw1198100 0.1 101616
05:00+3ssw2293100 0.0 101441
08:00+3sw2489100 0.3 1015425
11:00+4ssw2696100 2.4 1014473
14:00+5ssw1496100 2.2 1015282
17:00+7s2497100 1.2 1014231
20:00+7ssw2898100 1.4 1014451
16 may, sun
sun1623:00+8ssw2798100 0.1 1015393
02:00+8ssw2699100 0.1 1015409
05:00+8ssw2599100 0.0 1014261
08:00+8s2399100 0.1 1015202
11:00+9s2796100 0.1 1015535
14:00+11ssw2791100 0.3 1013542
17:00+11ssw3997100 1.2 1012626
20:00+11ssw3896100 1.8 1011485